Location: Dilsberg
(49.3983°N, 8.8354°E)
Time: 06:37:33
(UTC+00:00)

NOSS 2-1 (D) - Pass Details

Date: 19 May 2025
Orbit: 378 x 1697 km, 63.3° (Epoch: 22 June)

Event Time Altitude Azimuth Distance (km) Brightness Sun altitude
Exits shadow 22:36:18 83° 295° (WNW) 417 2.6 -19.9°
Maximum altitude 22:36:21 83° 313° (NW) 416 2.6 -19.9°
Drops below altitude 10° 22:39:20 10° 41° (NE) 1,410 5.9 -20.0°
Sets 22:41:16 0° 42° (NE) 2,258 7.0 -20.1°
